1486879200.1,1263,9.25,73946.0,-10.57,-37.69,-38.11,0,*55
1486879201.33,1264,9.25,73946.0,-10.57,-37.75,-38.11,0,*5F
1486879202.56,1265,9.25,73950.0,-10.57,-37.75,-38.11,0,*5E
1486879203.82,1266,9.25,73948.0,-10.57,-37.69,-38.11,0,*50
1486879205.05,1267,9.25,73946.8,-10.57,-37.75,-38.11,0,*5C
1486879206.31,1268,9.25,73944.8,-10.57,-37.69,-38.11,0,*5E
1486879207.55,1269,9.25,73948.3,-10.57,-37.75,-38.11,0,*52
1486879208.78,1270,9.25,73948.8,-10.57,-37.75,-38.11,0,*5A
1486879210.04,1271,9.25,73948.8,-10.57,-37.69,-38.11,0,*56
1486879211.3,1272,9.25,73944.0,-10.57,-37.69,-38.11,0,*55
1486879212.56,1273,9.25,73948.0,-10.57,-37.69,-38.11,0,*54
1486879213.79,1274,9.25,73948.8,-10.57,-37.75,-38.11,0,*5E
1486879215.05,1275,9.25,73950.0,-10.55,-37.75,-38.11,0,*5D
1486879216.34,1276,9.25,73948.0,-10.59,-37.81,-38.11,0,*59
1486879217.59,1277,9.25,73946.8,-10.57,-37.69,-38.11,0,*50
1486879218.83,1278,9.25,73948.5,-10.59,-37.75,-38.17,0,*5A
1486879220.06,1279,9.25,73950.3,-10.57,-37.69,-38.05,0,*5B
1486879221.27,1280,9.25,73946.5,-10.57,-37.75,-38.05,0,*50
1486879222.5,1281,9.25,73950.8,-10.57,-37.69,-38.05,0,*5C
1486879223.73,1282,9.25,73950.3,-10.59,-37.75,-38.17,0,*5F
1486879224.99,1283,9.25,73944.3,-10.57,-37.69,-38.11,0,*5B
1486879226.23,1284,9.25,73946.8,-10.57,-37.75,-38.11,0,*51
1486879227.49,1285,9.25,73948.5,-10.57,-37.69,-38.11,0,*5D
1486879228.69,1286,9.25,73948.3,-10.57,-37.75,-38.05,0,*56
1486879229.92,1287,9.25,73946.3,-10.57,-37.75,-38.11,0,*52
1486879231.16,1288,9.25,73944.8,-10.57,-37.69,-38.05,0,*55
1486879232.36,1289,9.25,73948.8,-10.57,-37.75,-38.05,0,*59
1486879233.6,1290,9.25,73946.8,-10.57,-37.75,-38.11,0,*54
1486879234.86,1291,9.25,73944.8,-10.57,-37.69,-38.11,0,*58
1486879236.12,1292,9.25,73948.3,-10.57,-37.69,-38.11,0,*5B
1486879237.38,1293,9.25,73948.0,-10.57,-37.69,-38.11,0,*5A
1486879238.63,1294,9.25,73948.5,-10.57,-37.69,-38.11,0,*5D
1486879239.89,1295,9.25,73948.5,-10.57,-37.69,-38.11,0,*5C
1486879241.13,1296,9.25,73950.3,-10.57,-37.69,-38.05,0,*5A
1486879242.36,1297,9.25,73950.8,-10.57,-37.75,-38.11,0,*53
1486879243.62,1298,9.25,73944.3,-10.55,-37.75,-38.11,0,*5E
1486879244.87,1299,9.25,73944.0,-10.55,-37.75,-38.11,0,*5F
1486879246.1,1300,9.25,73946.0,-10.57,-37.75,-38.11,0,*5C
1486879247.34,1301,9.25,73948.3,-10.57,-37.69,-38.05,0,*55
1486879248.6,1302,9.25,73948.8,-10.57,-37.69,-38.11,0,*53
1486879249.83,1303,9.25,73948.8,-10.59,-37.75,-38.17,0,*57
1486879251.09,1304,9.25,73946.0,-10.57,-37.69,-38.11,0,*55
1486879252.3,1305,9.25,73950.8,-10.57,-37.75,-38.05,0,*5C
1486879253.53,1306,9.25,73944.3,-10.57,-37.75,-38.11,0,*5A
1486879254.79,1307,9.25,73944.3,-10.57,-37.69,-38.11,0,*56
1486879256.02,1308,9.25,73946.5,-10.57,-37.75,-38.11,0,*54
1486879257.25,1309,9.25,73948.3,-10.57,-37.69,-38.05,0,*5D
1486879258.51,1310,9.25,73950.0,-10.57,-37.69,-38.11,0,*50
1486879259.72,1311,9.25,73950.8,-10.57,-37.75,-38.05,0,*59
1486879260.95,1312,9.25,73946.3,-10.57,-37.69,-38.05,0,*57
1486879262.19,1313,9.25,73948.3,-10.57,-37.69,-38.05,0,*56
1486879263.42,1314,9.25,73946.3,-10.57,-37.75,-38.11,0,*59
1486879264.65,1315,9.25,73950.8,-10.59,-37.75,-38.17,0,*50
1486879265.91,1316,9.25,73948.5,-10.57,-37.69,-38.11,0,*56
1486879267.14,1317,9.25,73950.3,-10.57,-37.75,-38.11,0,*5A
1486879268.41,1318,9.25,73950.0,-10.55,-37.75,-38.23,0,*56
1486879269.66,1319,9.25,73950.8,-10.59,-37.75,-38.11,0,*5A
1486879270.92,1320,9.25,73946.5,-10.59,-37.75,-38.11,0,*50
1486879272.15,1321,9.25,73946.5,-10.57,-37.75,-38.11,0,*5F
1486879273.43,1322,9.25,73950.3,-10.55,-37.69,-38.11,0,*53
1486879274.72,1323,9.25,73948.8,-10.55,-37.69,-38.11,0,*52
1486879275.92,1324,9.25,73946.3,-10.57,-37.75,-38.05,0,*5F
1486879277.15,1325,9.25,73948.5,-10.57,-37.75,-38.11,0,*5B
1486879278.39,1326,9.25,73950.5,-10.57,-37.75,-38.11,0,*58
1486879279.65,1327,9.25,73950.0,-10.57,-37.69,-38.11,0,*54
1486879280.91,1328,9.25,73948.8,-10.57,-37.69,-38.11,0,*5B
1486879282.17,1329,9.25,73948.3,-10.57,-37.69,-38.11,0,*5A
1486879283.43,1330,9.25,73952.3,-10.57,-37.69,-38.11,0,*52
1486879284.66,1331,9.25,73948.0,-10.57,-37.75,-38.11,0,*5E
1486879285.92,1332,9.25,73950.8,-10.57,-37.69,-38.11,0,*50
1486879287.18,1333,9.25,73948.0,-10.57,-37.69,-38.11,0,*51
1486879288.44,1334,9.25,73950.0,-10.57,-37.69,-38.11,0,*56
1486879289.7,1335,9.25,73948.5,-10.59,-37.81,-38.17,0,*59
1486879290.94,1336,9.25,73948.0,-10.57,-37.75,-38.11,0,*59
1486879292.17,1337,9.25,73948.0,-10.57,-37.75,-38.11,0,*58
1486879293.46,1338,9.25,73948.3,-10.59,-37.81,-38.11,0,*52
1486879294.67,1339,9.25,73950.5,-10.57,-37.75,-38.05,0,*53
1486879295.93,1340,9.25,73950.3,-10.57,-37.69,-38.11,0,*55
1486879297.19,1341,9.25,73950.8,-10.57,-37.69,-38.11,0,*54
1486879298.44,1342,9.25,73948.8,-10.57,-37.69,-38.11,0,*57
1486879299.68,1343,9.25,73948.3,-10.57,-37.75,-38.11,0,*5B
1486879300.94,1344,9.25,73948.3,-10.59,-37.81,-38.17,0,*5F
1486879302.18,1345,9.25,73950.0,-10.57,-37.75,-38.23,0,*5C
1486879303.48,1346,9.25,73948.8,-10.59,-37.81,-38.29,0,*50
1486879304.74,1347,9.25,73944.3,-10.55,-37.75,-38.23,0,*5C
1486879306.03,1348,9.25,73948.3,-10.59,-37.81,-38.11,0,*55
1486879307.27,1349,9.25,73948.3,-10.57,-37.75,-38.23,0,*50
1486879308.54,1350,9.25,73948.5,-10.57,-37.69,-38.23,0,*55
1486879309.8,1351,9.25,73946.0,-10.57,-37.69,-38.11,0,*55
1486879311.03,1352,9.25,73946.8,-10.59,-37.75,-38.17,0,*53
1486879312.3,1353,9.25,73950.5,-10.59,-37.81,-38.17,0,*59
1486879313.56,1354,9.25,73950.0,-10.59,-37.81,-38.17,0,*5E
1486879314.83,1355,9.25,73948.3,-10.59,-37.81,-38.17,0,*5F
1486879316.06,1356,9.25,73950.3,-10.57,-37.75,-38.11,0,*5F
1486879317.29,1357,9.25,73948.5,-10.57,-37.75,-38.11,0,*5E
1486879318.53,1358,9.25,73950.3,-10.57,-37.75,-38.11,0,*51
1486879319.79,1359,9.25,73948.3,-10.57,-37.69,-38.11,0,*5D
1486879321.05,1360,9.25,73948.3,-10.59,-37.81,-38.17,0,*59
1486879322.31,1361,9.25,73948.5,-10.57,-37.69,-38.11,0,*56
1486879323.55,1362,9.25,73948.8,-10.59,-37.75,-38.17,0,*50
1486879324.81,1363,9.25,73950.0,-10.59,-37.81,-38.17,0,*5A
1486879326.08,1364,9.25,73950.5,-10.59,-37.81,-38.17,0,*5D
1486879327.34,1365,9.25,73950.0,-10.59,-37.81,-38.17,0,*5C
1486879328.61,1366,9.25,73948.5,-10.59,-37.81,-38.17,0,*5F
1486879329.84,1367,9.25,73948.8,-10.59,-37.75,-38.17,0,*55
1486879331.08,1368,9.25,73950.5,-10.59,-37.75,-38.17,0,*5A
1486879332.34,1369,9.25,73946.8,-10.59,-37.81,-38.17,0,*50
1486879333.61,1370,9.25,73946.5,-10.59,-37.75,-38.29,0,*5E
1486879334.87,1371,9.25,73944.3,-10.59,-37.81,-38.17,0,*59
1486879336.1,1372,9.25,73950.3,-10.59,-37.75,-38.17,0,*51
1486879337.34,1373,9.25,73950.8,-10.59,-37.75,-38.17,0,*50
1486879338.59,1374,9.25,73950.8,-10.59,-37.75,-38.11,0,*51
1486879339.85,1375,9.25,73950.3,-10.59,-37.63,-38.17,0,*51
1486879341.12,1376,9.25,73948.0,-10.59,-37.81,-38.17,0,*5E
1486879342.36,1377,9.25,73948.5,-10.63,-37.87,-38.17,0,*50
1486879343.62,1378,9.25,73946.0,-10.59,-37.81,-38.17,0,*50
1486879344.89,1379,9.25,73948.8,-10.59,-37.81,-38.17,0,*51
1486879346.12,1380,9.25,73944.0,-10.57,-37.75,-38.11,0,*54
1486879347.38,1381,9.25,73952.8,-10.59,-37.75,-38.29,0,*50
1486879348.65,1382,9.25,73954.0,-10.59,-37.75,-38.29,0,*53
1486879349.91,1383,9.25,73950.3,-10.63,-37.99,-38.35,0,*54
1486879351.15,1384,9.25,73948.3,-10.63,-37.87,-38.35,0,*5C
1486879352.42,1385,9.25,73950.8,-10.63,-37.81,-38.35,0,*5B
1486879353.68,1386,9.25,73948.3,-10.63,-37.81,-38.35,0,*58
1486879354.95,1387,9.25,73950.5,-10.63,-37.87,-38.23,0,*58
1486879356.21,1388,9.25,73948.5,-10.63,-37.87,-38.23,0,*57
1486879357.45,1389,9.25,73950.8,-10.63,-37.87,-38.35,0,*51
1486879358.69,1390,9.25,73950.8,-10.63,-37.87,-38.35,0,*59
1486879359.93,1391,9.25,73952.8,-10.63,-37.87,-38.35,0,*58
1486879361.2,1392,9.25,73954.8,-10.63,-37.81,-38.35,0,*5D
1486879362.44,1393,9.25,73948.5,-10.63,-37.87,-38.35,0,*5A
1486879363.66,1394,9.25,73950.8,-10.65,-37.87,-38.35,0,*5B
1486879364.9,1395,9.25,73950.0,-10.65,-37.81,-38.35,0,*5C
1486879366.14,1396,9.25,73948.8,-10.63,-37.87,-38.35,0,*5F
1486879367.41,1397,9.25,73948.0,-10.63,-37.87,-38.23,0,*59
1486879368.67,1398,9.25,73950.8,-10.63,-37.87,-38.23,0,*56
1486879369.94,1399,9.25,73946.5,-10.63,-37.87,-38.23,0,*57
1486879371.2,1400,9.25,73948.0,-10.63,-37.87,-38.23,0,*50
1486879372.47,1401,9.25,73948.5,-10.63,-37.87,-38.23,0,*51
1486879373.74,1402,9.25,73948.3,-10.65,-37.81,-38.23,0,*52
1486879375.0,1403,9.25,73950.8,-10.63,-37.87,-38.23,0,*53
1486879376.27,1404,9.25,73950.0,-10.63,-37.87,-38.23,0,*54
1486879377.54,1405,9.25,73950.5,-10.65,-37.81,-38.23,0,*55
1486879378.78,1406,9.25,73948.0,-10.63,-37.87,-38.17,0,*51
1486879380.04,1407,9.25,73948.0,-10.63,-37.87,-38.23,0,*57
1486879381.28,1408,9.25,73950.0,-10.65,-37.87,-38.23,0,*5E
1486879382.55,1409,9.25,73946.8,-10.63,-37.81,-38.17,0,*58
1486879383.79,1410,9.25,73950.8,-10.65,-37.81,-38.17,0,*56
1486879385.03,1411,9.25,73954.0,-10.65,-37.87,-38.23,0,*56
1486879386.27,1412,9.25,73950.8,-10.65,-37.87,-38.23,0,*55
1486879387.54,1413,9.25,73948.5,-10.65,-37.81,-38.23,0,*52
1486879388.81,1414,9.25,73948.0,-10.65,-37.81,-38.23,0,*55
1486879390.05,1415,9.25,73944.8,-10.65,-37.87,-38.23,0,*52
1486879391.32,1416,9.25,73950.8,-10.63,-37.81,-38.17,0,*56
1486879392.61,1417,9.25,73950.5,-10.63,-37.81,-38.23,0,*50
1486879393.85,1418,9.25,73948.8,-10.65,-37.81,-38.17,0,*5E
1486879395.12,1419,9.25,73954.0,-10.63,-37.87,-38.23,0,*58
1486879396.36,1420,9.25,73950.0,-10.65,-37.87,-38.23,0,*54
1486879397.65,1421,9.25,73950.0,-10.63,-37.81,-38.23,0,*55
1486879398.92,1422,9.25,73952.0,-10.63,-37.81,-38.17,0,*51
1486879400.18,1423,9.25,73948.5,-10.63,-37.81,-38.17,0,*50
1486879401.47,1424,9.25,73946.0,-10.63,-37.81,-38.23,0,*50
1486879402.71,1425,9.25,73952.0,-10.65,-37.81,-38.17,0,*50
1486879403.95,1426,9.25,73950.8,-10.65,-37.81,-38.17,0,*53
1486879405.22,1427,9.25,73952.8,-10.65,-37.81,-38.23,0,*55
1486879406.49,1428,9.25,73950.3,-10.63,-37.81,-38.17,0,*5B
1486879407.76,1429,9.25,73948.5,-10.65,-37.81,-38.23,0,*5B
1486879409.02,1430,9.25,73950.3,-10.65,-37.81,-38.23,0,*53
1486879410.3,1431,9.25,73948.8,-10.65,-37.81,-38.23,0,*52
1486879411.57,1432,9.25,73948.0,-10.65,-37.81,-38.23,0,*51
1486879412.84,1433,9.25,73950.8,-10.65,-37.81,-38.23,0,*50
1486879414.11,1434,9.25,73950.3,-10.65,-37.81,-38.23,0,*57
1486879415.37,1435,9.25,73948.8,-10.63,-37.87,-38.23,0,*56
1486879416.61,1436,9.25,73948.5,-10.65,-37.87,-38.23,0,*53
1486879417.88,1437,9.25,73950.3,-10.63,-37.87,-38.23,0,*54
1486879419.09,1438,9.25,73948.8,-10.65,-37.87,-38.17,0,*5A
1486879420.34,1439,9.25,73948.0,-10.65,-37.87,-38.23,0,*5C
1486879421.61,1440,9.25,73948.8,-10.65,-37.81,-38.23,0,*54
1486879422.88,1441,9.25,73954.5,-10.65,-37.81,-38.23,0,*55
1486879424.15,1442,9.25,73950.0,-10.65,-37.81,-38.23,0,*56
1486879425.44,1443,9.25,73952.8,-10.63,-37.81,-38.23,0,*51
1486879426.71,1444,9.25,73950.5,-10.65,-37.81,-38.23,0,*50
1486879427.95,1445,9.25,73952.3,-10.65,-37.81,-38.17,0,*56
1486879429.22,1446,9.25,73948.3,-10.65,-37.81,-38.23,0,*52
1486879430.49,1447,9.25,73954.5,-10.65,-37.81,-38.23,0,*53
1486879431.77,1448,9.25,73952.3,-10.63,-37.69,-38.23,0,*5C
1486879433.02,1449,9.25,73954.3,-10.65,-37.81,-38.17,0,*5A
1486879434.29,1450,9.25,73948.8,-10.65,-37.81,-38.23,0,*55
1486879435.58,1451,9.25,73948.8,-10.63,-37.81,-38.23,0,*52
1486879436.85,1452,9.25,73950.8,-10.65,-37.81,-38.23,0,*57
1486879438.09,1453,9.25,73952.5,-10.65,-37.81,-38.17,0,*51
1486879439.33,1454,9.25,73950.3,-10.65,-37.87,-38.23,0,*57
1486879440.57,1455,9.25,73954.8,-10.65,-37.87,-38.23,0,*56
1486879441.81,1456,9.25,73950.3,-10.65,-37.81,-38.17,0,*54
1486879443.05,1457,9.25,73954.5,-10.65,-37.81,-38.17,0,*55
1486879444.3,1458,9.25,73948.8,-10.65,-37.81,-38.17,0,*5A
1486879445.56,1459,9.25,73954.0,-10.67,-37.87,-38.23,0,*58
1486879446.83,1460,9.25,73954.0,-10.67,-37.87,-38.23,0,*52
1486879448.1,1461,9.25,73950.5,-10.65,-37.81,-38.23,0,*57
1486879449.37,1462,9.25,73952.3,-10.65,-37.81,-38.23,0,*54
1486879450.61,1463,9.25,73950.0,-10.65,-37.81,-38.17,0,*52
1486879451.85,1464,9.25,73948.3,-10.65,-37.81,-38.17,0,*55
1486879453.09,1465,9.25,73948.5,-10.65,-37.81,-38.17,0,*54
1486879454.36,1466,9.25,73950.5,-10.63,-37.81,-38.17,0,*51
1486879455.6,1467,9.25,73950.8,-10.65,-37.81,-38.17,0,*56
1486879456.87,1468,9.25,73950.5,-10.65,-37.81,-38.23,0,*5E
1486879458.11,1469,9.25,73950.0,-10.65,-37.81,-38.17,0,*58
1486879459.34,1470,9.25,73950.3,-10.65,-37.81,-38.05,0,*53
1486879460.62,1471,9.25,73954.0,-10.65,-37.81,-38.23,0,*56
1486879461.88,1472,9.25,73948.5,-10.67,-37.87,-38.23,0,*51
1486879463.13,1473,9.25,73948.0,-10.65,-37.87,-38.23,0,*52
1486879464.37,1474,9.25,73950.3,-10.65,-37.87,-38.23,0,*55
1486879465.61,1475,9.25,73954.0,-10.65,-37.81,-38.17,0,*55
1486879466.88,1476,9.25,73954.0,-10.65,-37.81,-38.23,0,*51
1486879468.12,1477,9.25,73946.5,-10.65,-37.81,-38.17,0,*57
1486879469.39,1478,9.25,73952.3,-10.65,-37.81,-38.23,0,*5F
1486879470.66,1479,9.25,73948.8,-10.65,-37.81,-38.23,0,*5E
1486879471.93,1480,9.25,73950.3,-10.65,-37.81,-38.23,0,*58
1486879473.17,1481,9.25,73950.0,-10.65,-37.81,-38.17,0,*5E
1486879474.41,1482,9.25,73950.0,-10.65,-37.81,-38.05,0,*5E
1486879475.67,1483,9.25,73952.3,-10.67,-37.81,-38.17,0,*5E
1486879476.94,1484,9.25,73954.3,-10.67,-37.81,-38.17,0,*59
1486879478.18,1485,9.25,73952.0,-10.65,-37.81,-38.05,0,*59
1486879479.45,1486,9.25,73948.8,-10.65,-37.81,-38.23,0,*5E
1486879480.72,1487,9.25,73950.8,-10.65,-37.81,-38.23,0,*5F
1486879481.96,1488,9.25,73954.8,-10.65,-37.81,-38.17,0,*57
1486879483.2,1489,9.25,73952.8,-10.65,-37.81,-38.17,0,*56
1486879484.47,1490,9.25,73954.8,-10.65,-37.81,-38.23,0,*59
1486879485.71,1491,9.25,73950.5,-10.65,-37.81,-38.17,0,*5F
1486879486.98,1492,9.25,73954.5,-10.65,-37.81,-38.23,0,*5B
1486879488.22,1493,9.25,73950.0,-10.65,-37.81,-38.17,0,*5D
1486879489.49,1494,9.25,73950.5,-10.65,-37.81,-38.23,0,*5D
1486879490.73,1495,9.25,73952.8,-10.65,-37.81,-38.05,0,*58
1486879491.96,1496,9.25,73950.8,-10.65,-37.69,-38.17,0,*5E
1486879493.2,1497,9.25,73952.8,-10.65,-37.69,-38.17,0,*5F
1486879494.43,1498,9.25,73954.3,-10.65,-37.69,-38.17,0,*50
1486879495.66,1499,9.25,73948.5,-10.65,-37.69,-38.05,0,*52
1486879496.89,1500,9.25,73952.5,-10.65,-37.69,-38.17,0,*50
1486879498.16,1501,9.25,73950.3,-10.63,-37.81,-38.17,0,*51
1486879499.4,1502,9.25,73954.0,-10.65,-37.81,-38.17,0,*54
1486879500.69,1503,9.25,73952.8,-10.63,-37.81,-38.23,0,*54
1486879501.93,1504,9.25,73954.8,-10.65,-37.81,-38.17,0,*52
1486879503.17,1505,9.25,73954.8,-10.65,-37.81,-38.17,0,*53
1486879504.44,1506,9.25,73950.8,-10.65,-37.81,-38.23,0,*57
1486879505.68,1507,9.25,73954.0,-10.65,-37.81,-38.05,0,*52
1486879506.89,1508,9.25,73954.0,-10.65,-37.87,-38.05,0,*5B
1486879508.15,1509,9.25,73952.8,-10.63,-37.81,-38.17,0,*59
1486879509.42,1510,9.25,73950.0,-10.65,-37.81,-38.23,0,*50
1486879510.69,1511,9.25,73950.5,-10.65,-37.81,-38.23,0,*51
1486879511.93,1512,9.25,73952.8,-10.65,-37.81,-38.17,0,*55
1486879513.17,1513,9.25,73954.8,-10.65,-37.81,-38.17,0,*54
1486879514.41,1514,9.25,73950.8,-10.65,-37.87,-38.23,0,*52
1486879515.68,1515,9.25,73954.0,-10.65,-37.81,-38.23,0,*55
1486879516.95,1516,9.25,73948.8,-10.65,-37.81,-38.23,0,*56
1486879518.25,1517,9.25,73950.5,-10.63,-37.81,-38.23,0,*51
1486879519.46,1518,9.25,73954.3,-10.65,-37.87,-38.17,0,*59
1486879520.7,1519,9.25,73952.5,-10.65,-37.81,-38.17,0,*5E
1486879521.94,1520,9.25,73952.5,-10.65,-37.81,-38.17,0,*54
1486879523.17,1521,9.25,73952.3,-10.65,-37.69,-38.05,0,*50
1486879524.44,1522,9.25,73952.5,-10.65,-37.69,-38.23,0,*57
1486879525.68,1523,9.25,73952.5,-10.65,-37.81,-38.17,0,*57
1486879526.94,1524,9.25,73952.3,-10.67,-37.81,-38.05,0,*51
1486879528.2,1525,9.25,73952.0,-10.67,-37.81,-38.05,0,*50
1486879529.44,1526,9.25,73954.5,-10.65,-37.81,-38.17,0,*52
1486879530.68,1527,9.25,73954.3,-10.65,-37.81,-38.05,0,*50
1486879531.92,1528,9.25,73952.8,-10.65,-37.81,-38.17,0,*5C
1486879533.16,1529,9.25,73950.5,-10.65,-37.81,-38.05,0,*5E
1486879534.39,1530,9.25,73954.5,-10.65,-37.69,-38.05,0,*50
1486879535.62,1531,9.25,73952.3,-10.65,-37.69,-38.05,0,*51
1486879536.85,1532,9.25,73950.5,-10.65,-37.69,-38.17,0,*51
1486879538.08,1533,9.25,73952.0,-10.65,-37.69,-38.05,0,*53
1486879539.31,1534,9.25,73950.0,-10.65,-37.69,-38.05,0,*54
1486879540.54,1535,9.25,73952.8,-10.65,-37.69,-38.05,0,*55
1486879541.77,1536,9.25,73954.0,-10.65,-37.69,-38.05,0,*56
1486879543.06,1537,9.25,73954.3,-10.63,-37.69,-37.99,0,*5B
1486879544.29,1538,9.25,73954.0,-10.65,-37.69,-38.05,0,*58
1486879545.52,1539,9.25,73952.5,-10.65,-37.69,-38.05,0,*59
1486879546.81,1540,9.25,73952.0,-10.63,-37.69,-37.99,0,*5B
1486879548.06,1541,9.25,73952.3,-10.63,-37.69,-38.05,0,*50
1486879549.29,1542,9.25,73948.0,-10.65,-37.69,-38.05,0,*55
1486879550.55,1543,9.25,73950.0,-10.65,-37.69,-37.99,0,*5E
1486879551.78,1544,9.25,73952.0,-10.65,-37.69,-38.05,0,*53
1486879553.01,1545,9.25,73950.8,-10.65,-37.69,-38.05,0,*52
1486879554.3,1546,9.25,73952.8,-10.63,-37.69,-37.99,0,*5D
1486879555.56,1547,9.25,73952.5,-10.65,-37.69,-37.99,0,*5A
1486879556.79,1548,9.25,73950.0,-10.65,-37.69,-38.05,0,*5F
1486879558.05,1549,9.25,73950.3,-10.63,-37.69,-38.05,0,*58
1486879559.3,1550,9.25,73950.5,-10.63,-37.63,-38.05,0,*5A
1486879560.55,1551,9.25,73952.5,-10.63,-37.63,-38.05,0,*5B
1486879561.78,1552,9.25,73954.3,-10.65,-37.69,-38.05,0,*54
1486879563.03,1553,9.25,73954.0,-10.63,-37.69,-38.05,0,*53
1486879564.29,1554,9.25,73952.3,-10.63,-37.69,-38.05,0,*54
1486879565.54,1555,9.25,73954.0,-10.63,-37.69,-38.05,0,*55
1486879566.83,1556,9.25,73950.5,-10.63,-37.69,-37.99,0,*5C
1486879568.09,1557,9.25,73948.8,-10.65,-37.69,-37.99,0,*5B
1486879569.38,1558,9.25,73948.8,-10.63,-37.69,-37.99,0,*52
1486879570.63,1559,9.25,73954.5,-10.63,-37.69,-38.05,0,*59
1486879571.88,1560,9.25,73952.5,-10.63,-37.69,-38.05,0,*53
1486879573.14,1561,9.25,73954.8,-10.63,-37.69,-38.05,0,*52
1486879574.39,1562,9.25,73948.8,-10.63,-37.69,-38.05,0,*51
1486879575.64,1563,9.25,73948.8,-10.63,-37.63,-38.05,0,*5A
1486879576.9,1564,9.25,73950.3,-10.63,-37.69,-38.05,0,*57
1486879578.15,1565,9.25,73954.3,-10.63,-37.69,-38.05,0,*56
1486879579.38,1566,9.25,73952.3,-10.65,-37.69,-38.05,0,*53
1486879580.63,1567,9.25,73952.3,-10.63,-37.69,-38.05,0,*54
1486879581.92,1568,9.25,73952.8,-10.63,-37.63,-37.99,0,*5B
1486879583.21,1569,9.25,73954.3,-10.59,-37.63,-37.99,0,*53
1486879584.49,1570,9.25,73954.5,-10.63,-37.69,-37.99,0,*58
1486879585.78,1571,9.25,73952.8,-10.59,-37.63,-37.93,0,*50
1486879587.07,1572,9.25,73950.5,-10.59,-37.63,-37.99,0,*59
1486879588.32,1573,9.25,73954.3,-10.63,-37.69,-38.05,0,*51
1486879589.57,1574,9.25,73954.0,-10.63,-37.69,-38.05,0,*56
1486879590.83,1575,9.25,73952.3,-10.63,-37.69,-38.05,0,*57
1486879592.08,1576,9.25,73950.3,-10.63,-37.69,-38.05,0,*54
1486879593.37,1577,9.25,73952.3,-10.63,-37.63,-37.99,0,*55
1486879594.65,1578,9.25,73950.8,-10.59,-37.63,-37.93,0,*59
1486879595.9,1579,9.25,73954.0,-10.63,-37.63,-38.05,0,*51
1486879597.19,1580,9.25,73954.0,-10.59,-37.63,-37.99,0,*54
1486879598.45,1581,9.25,73954.3,-10.59,-37.57,-37.99,0,*52
1486879599.74,1582,9.25,73952.3,-10.59,-37.63,-37.99,0,*56
1486879601.03,1583,9.25,73952.0,-10.59,-37.63,-37.99,0,*57
1486879602.3,1584,9.25,73948.5,-10.59,-37.57,-37.99,0,*57
1486879603.56,1585,9.25,73948.8,-10.59,-37.57,-37.99,0,*56
1486879604.84,1586,9.25,73950.3,-10.59,-37.63,-37.93,0,*58
1486879606.13,1587,9.25,73952.3,-10.59,-37.63,-38.11,0,*5C
1486879607.39,1588,9.25,73952.3,-10.59,-37.57,-37.99,0,*5B
1486879608.67,1589,9.25,73954.0,-10.59,-37.63,-38.11,0,*52
1486879609.95,1590,9.25,73952.5,-10.59,-37.63,-38.11,0,*5A
1486879611.2,1591,9.25,73952.8,-10.57,-37.51,-37.87,0,*54
1486879612.48,1592,9.25,73952.3,-10.59,-37.63,-37.99,0,*57
1486879613.77,1593,9.25,73950.3,-10.63,-37.69,-37.99,0,*55
1486879615.06,1594,9.25,73948.8,-10.59,-37.63,-37.99,0,*51
1486879616.32,1595,9.25,73950.0,-10.59,-37.57,-37.99,0,*57
1486879617.61,1596,9.25,73952.5,-10.59,-37.63,-37.99,0,*53
1486879618.9,1597,9.25,73954.3,-10.63,-37.69,-37.99,0,*51
1486879620.15,1598,9.25,73954.3,-10.63,-37.63,-38.05,0,*5E
1486879621.44,1599,9.25,73952.0,-10.59,-37.63,-37.99,0,*5C
1486879622.72,1600,9.25,73954.8,-10.59,-37.63,-37.93,0,*55
1486879624.01,1601,9.25,73952.3,-10.59,-37.63,-37.99,0,*5E
1486879625.3,1602,9.25,73952.0,-10.59,-37.63,-37.99,0,*5D
1486879626.59,1603,9.25,73952.8,-10.59,-37.63,-37.99,0,*5C
1486879627.88,1604,9.25,73948.0,-10.59,-37.63,-37.99,0,*5B
1486879629.17,1605,9.25,73952.3,-10.59,-37.63,-37.93,0,*50
1486879630.43,1606,9.25,73950.8,-10.59,-37.57,-37.99,0,*5E
1486879631.67,1607,9.25,73952.3,-10.57,-37.57,-37.99,0,*51
1486879632.96,1608,9.25,73954.0,-10.59,-37.63,-37.99,0,*57
1486879634.25,1609,9.25,73952.0,-10.59,-37.63,-37.99,0,*56
1486879635.51,1610,9.25,73952.8,-10.57,-37.51,-37.93,0,*5B
1486879636.8,1611,9.25,73952.0,-10.59,-37.63,-37.99,0,*5F
1486879638.08,1612,9.25,73950.3,-10.59,-37.63,-38.11,0,*53
1486879639.37,1613,9.25,73954.0,-10.59,-37.63,-37.93,0,*57
1486879640.65,1614,9.25,73954.3,-10.59,-37.63,-37.99,0,*5A
1486879641.92,1615,9.25,73952.3,-10.57,-37.51,-37.93,0,*5E
1486879643.21,1616,9.25,73952.5,-10.59,-37.63,-37.99,0,*58
1486879644.44,1617,9.25,73956.0,-10.57,-37.57,-37.93,0,*5A
1486879645.73,1618,9.25,73952.3,-10.59,-37.63,-37.99,0,*56
1486879646.99,1619,9.25,73952.0,-10.59,-37.57,-37.99,0,*50
1486879648.2,1620,9.25,73954.3,-10.57,-37.57,-38.05,0,*5E
1486879649.49,1621,9.25,73954.8,-10.59,-37.63,-37.99,0,*5C
1486879650.78,1622,9.25,73954.0,-10.59,-37.63,-37.99,0,*5F
1486879652.06,1623,9.25,73954.3,-10.59,-37.63,-38.11,0,*51
1486879653.34,1624,9.25,73954.0,-10.59,-37.63,-38.11,0,*56
1486879654.58,1625,9.25,73954.5,-10.57,-37.57,-37.93,0,*5B
1486879655.87,1626,9.25,73952.3,-10.59,-37.63,-37.99,0,*5B
1486879657.16,1627,9.25,73952.3,-10.59,-37.63,-37.99,0,*5A
1486879658.39,1628,9.25,73952.3,-10.57,-37.57,-37.93,0,*56
1486879659.68,1629,9.25,73952.8,-10.59,-37.63,-37.99,0,*54
1486879660.91,1630,9.25,73952.8,-10.57,-37.63,-38.05,0,*58
1486879662.2,1631,9.25,73952.8,-10.59,-37.63,-38.11,0,*52
1486879663.48,1632,9.25,73952.5,-10.59,-37.63,-37.99,0,*5E
1486879664.69,1633,9.25,73950.0,-10.57,-37.57,-38.05,0,*5C
1486879665.9,1634,9.25,73952.0,-10.57,-37.57,-38.05,0,*5B
1486879667.16,1635,9.25,73954.0,-10.57,-37.51,-37.93,0,*5C
1486879668.45,1636,9.25,73954.8,-10.59,-37.63,-37.99,0,*5A
1486879669.73,1637,9.25,73954.3,-10.59,-37.63,-38.11,0,*54
1486879670.94,1638,9.25,73952.0,-10.57,-37.57,-38.05,0,*57
1486879672.23,1639,9.25,73952.3,-10.59,-37.63,-37.99,0,*55
1486879673.49,1640,9.25,73954.8,-10.59,-37.57,-37.99,0,*5C
1486879674.72,1641,9.25,73950.8,-10.57,-37.57,-37.93,0,*59
1486879675.96,1642,9.25,73952.0,-10.57,-37.57,-37.93,0,*5A
1486879677.19,1643,9.25,73954.5,-10.57,-37.57,-37.93,0,*5B
1486879678.46,1644,9.25,73956.3,-10.59,-37.75,-37.99,0,*58
1486879679.69,1645,9.25,73956.0,-10.57,-37.69,-38.05,0,*50
1486879680.95,1646,9.25,73952.0,-10.57,-37.69,-38.11,0,*56
1486879682.18,1647,9.25,73952.5,-10.57,-37.69,-38.05,0,*52
1486879683.39,1648,9.25,73954.0,-10.57,-37.75,-38.17,0,*53
1486879684.6,1649,9.25,73954.5,-10.57,-37.57,-38.05,0,*51
1486879685.83,1650,9.25,73958.0,-10.57,-37.63,-38.05,0,*5E
1486879687.06,1651,9.25,73952.0,-10.57,-37.69,-38.05,0,*55
1486879688.3,1652,9.25,73952.8,-10.57,-37.69,-38.05,0,*56
1486879689.56,1653,9.25,73954.3,-10.57,-37.69,-38.11,0,*52
1486879690.81,1654,9.25,73952.5,-10.59,-37.75,-38.11,0,*56
1486879692.07,1655,9.25,73954.3,-10.59,-37.75,-38.11,0,*57
1486879693.3,1656,9.25,73954.8,-10.59,-37.75,-38.17,0,*52
1486879694.53,1657,9.25,73952.3,-10.57,-37.69,-38.05,0,*53
1486879695.79,1658,9.25,73954.3,-10.59,-37.75,-38.11,0,*5A
1486879697.02,1659,9.25,73954.5,-10.57,-37.69,-38.05,0,*5D
1486879698.26,1660,9.25,73954.8,-10.57,-37.69,-38.05,0,*57
1486879699.49,1661,9.25,73958.3,-10.59,-37.75,-38.17,0,*56
1486879700.75,1662,9.25,73956.8,-10.57,-37.69,-38.11,0,*50
1486879701.98,1663,9.25,73954.3,-10.57,-37.75,-38.11,0,*5C
1486879703.22,1664,9.25,73954.3,-10.59,-37.75,-38.17,0,*53
1486879704.47,1665,9.25,73954.8,-10.59,-37.75,-38.11,0,*54
1486879705.76,1666,9.25,73952.3,-10.59,-37.81,-38.11,0,*5C
1486879706.99,1667,9.25,73952.8,-10.57,-37.69,-38.05,0,*50
1486879708.25,1668,9.25,73952.8,-10.59,-37.75,-38.11,0,*59
1486879709.51,1669,9.25,73952.3,-10.59,-37.75,-38.11,0,*58